STARLINK-3907, 52501

Orbit data source: Space-Track

STARLINK-3907, 52501 is a payload satellite owned by SpaceX/Seattle (US) in LEO that was launched on Fri, 06 May 2022 UTC via an FALCON 9 launch vehicle from the Air Force Eastern Test Range (AFETR). Payload-class satellites include a variety of spacecraft equipped with specific instruments for various scientific and technological missions. These include communications satellites like Starlink; space stations such as the ISS; scientific satellites like the Hubble; Earth observation satellites from companies like Planet Labs, Umbra, and HawkEye 360; GPS; miniature CubeSats for education and research; and military/defense satellites.

Loading next visibility...
Identifier
52501, 2022-049BC
Orbit
LEO
Country
Flag of USUS
Related business
Manufacturer
SpaceX/Seattle
Mission
Operational Commercial Communications
Bus & Motor
STARLINK, Unknown motor
Mass
297 kg wet, ~220 kg dry
Launch date (UTC)
2022-05-06 (4 years ago)
Launch vehicle
FALCON 9
Launch site
Air Force Eastern Test Range (AFETR)
Object type
Payload
Rocket body
Debris
Shape & HBR
Box + 1 Pan, 10.1 m
Radar Cross Section
13.562 m², Large (>1 m²)

Expand to show TLE details & history
Last TLE update: 6 hours ago

TLE from 6 hours ago
0 STARLINK-3907
1 52501U 22049BC  26207.25003472  .00122374  00000-0  53014-2 0  9994
2 52501  53.1613 146.1628 0000480 135.7211 167.3384 15.21461145  5809
Epoch: 2026-07-26T06:00Z
TLE epoch observation values (Epoch: 2026-07-26T06:00:02.999Z)
Latitude
-42.32328°
Longitude
69.47483°
Altitude
515.885 km
Speed
7.605 km/s
True Right ascension
06h 53m 45s
True Declination
-42° 08' 46"
Sunlit
Object was in daylight at epoch
Visualization orbit readout
Latitude
Unknown
Longitude
Unknown
Altitude
Unknown
Speed
Unknown
Apparent Right ascension
Unknown
Apparent Declination
Unknown
Sunlit
N/A
Visualization observer readout
Local Sidereal Time
01:13:02
Azimuth
Unknown
Elevation
Unknown
Doppler factor
Unknown
Orbital elements
Apogee altitude
502.018 km
Perigee altitude
501.358 km
Semi-major axis
6,879.825 km
Eccentricity
0.00005
Inclination
53.1613°
RAAN
146.1628°
Arg. of periapsis
135.7211°
True anomaly
167.33961°
Mean anomaly
167.3384°
Eccentric anomaly
167.339°
Mean motion
3.80344 °/min
Orbital period
94.65 mins
BSTAR
0.0053014
Loading maneuver chart data...
Computing Atmospheric mass density...
Loading historical data...
Loading historical data...
Loading historical data...
Loading historical data...
Loading historical data...
Loading historical data...
Loading historical data...

Documentation

Showing up to 5 results
|